Temp
11 11 11 12 12 12 12 12 11 12 12 12 11 11 11 11 11 10 10 10 10 9
11 10 10 11 12 11 11 12 12 11 11 11 10 10 10 10 10 10 9 9 9 9
10 11 11 11 12 12 12 11 11 10 10 10 10 10 9 10 10 9 9 9 9 9
11 11 11 11 11 11 11 11 10 10 10 10 10 9 10 10 9 9 9 9 9 8
10 10 10 10 10 10 10 10 10 10 10 10 10 10 10 9 9 9 9 9 8 8
10 10 10 10 10 10 11 11 10 10 10 10 10 9 9 9 9 8 8 8 8 8
10 10 11 11 10 10 11 10 10 10 10 9 9 9 9 9 8 8 8 8 7 7
11 11 11 11 10 10 10 10 10 9 9 9 9 9 9 8 8 8 7 7 6 6
11 11 11 10 10 10 10 9 9 9 9 9 9 8 8 8 7 7 6 6 6 6
10 10 10 10 10 9 9 9 9 9 8 8 8 7 7 7 6 6 6 6 5 5
10 10 10 9 9 9 9 8 8 8 8 7 7 7 7 6 6 6 5 5 5 4
10 9 9 9 9 8 8 8 8 7 7 7 7 6 6 5 5 5 5 5 5 4
9 9 9 9 8 8 8 7 7 7 6 6 6 5 5 5 4 4 4 4 4 4
8 8 8 8 7 7 6 6 5 5 5 5 4 4 4 5 4 4 4 3 4 4
Height
793 796 799 800 803 804 807 810 811 813 819 824 826 825 828 828 831 834 833 834 833 833
791 794 796 799 801 802 807 808 812 816 816 819 821 824 823 826 828 831 830 832 832 832
787 791 794 796 799 802 804 805 809 811 814 815 818 819 821 824 826 827 825 828 829 829
784 788 792 795 797 800 803 806 806 808 811 812 814 817 818 821 823 825 823 824 826 826
781 785 788 792 796 797 799 802 804 807 809 809 811 814 816 818 821 820 822 820 824 823
776 779 783 787 791 795 796 798 802 804 808 809 808 810 814 816 817 818 817 817 819 820
775 778 781 785 789 792 793 795 798 802 806 807 806 808 811 811 815 813 814 815 816 817
774 776 779 783 785 788 791 794 797 799 802 802 804 804 808 811 810 810 812 814 814 815
773 775 777 780 783 786 789 791 793 795 797 800 801 805 806 807 808 809 811 810 810 811
771 773 776 779 782 785 787 789 792 794 797 799 802 803 804 805 805 805 805 805 806 807
771 773 776 778 781 784 786 789 791 793 796 798 799 801 801 801 802 802 802 802 803 804
771 773 775 777 780 782 784 787 789 791 793 795 796 797 798 798 798 798 799 800 800 800
771 773 775 777 779 781 783 785 787 790 792 793 795 795 795 795 795 795 796 797 797 797
771 773 775 777 779 781 783 786 788 790 791 792 793 793 793 793 793 793 793 792 792 792
Wind_Speed
21 21 21 21 23 22 19 16 13 16 14 12 11 6 9 10 10 10 10 9 8 7
23 23 26 27 24 25 22 15 14 15 13 11 9 11 11 13 13 12 9 9 9 9
28 28 25 22 21 21 19 17 15 14 13 14 15 14 14 16 13 13 11 10 10 9
29 29 25 22 22 20 21 20 19 19 21 18 15 16 16 14 13 14 12 10 9 10
28 27 27 25 23 23 24 23 19 19 19 17 17 17 15 15 15 13 12 9 11 11
24 24 26 26 25 25 22 19 20 18 19 18 17 15 15 14 13 12 11 11 12 12
20 21 22 22 22 22 20 20 19 18 18 17 15 15 14 13 14 12 12 12 12 12
16 16 17 18 18 18 18 19 18 16 15 14 15 14 15 15 13 12 13 13 13 12
13 14 15 14 16 17 17 15 15 15 15 15 15 14 14 13 14 13 13 12 11 12
11 13 15 14 15 17 16 15 16 16 16 16 15 13 13 13 12 12 12 12 12 12
11 13 14 16 17 17 17 17 16 15 15 14 13 12 11 11 12 11 12 11 11 12
10 11 12 13 14 13 13 13 13 12 12 12 10 10 10 10 11 12 12 11 12 12
11 11 13 12 12 11 11 10 10 9 9 9 9 8 9 9 11 13 13 12 12 13
7 8 8 9 9 8 8 7 7 6 5 5 5 5 8 11 13 13 12 14 16 16
Wind_Direction
195 188 192 190 184 188 206 219 212 207 202 213 234 242 250 255 259 261 248 248 242 238
213 218 219 216 219 220 223 200 204 212 209 211 223 228 231 252 244 243 239 246 243 243
211 207 207 206 205 208 212 213 214 221 226 218 222 229 236 233 234 231 227 232 239 245
218 216 218 219 218 216 218 212 218 221 225 225 226 218 219 228 228 229 227 234 248 251
224 225 224 226 230 230 229 228 230 232 221 213 215 218 221 223 224 225 231 239 249 255
227 229 226 226 227 231 219 226 219 215 225 221 215 218 221 225 228 232 239 245 252 260
224 225 226 227 226 222 225 218 219 221 221 220 215 216 222 227 233 237 246 255 260 262
227 223 221 219 217 214 212 213 216 214 216 218 222 224 225 230 238 245 251 253 255 260
223 216 213 213 211 211 208 211 209 213 218 222 224 225 234 239 243 242 248 261 269 270
208 206 207 212 208 204 209 211 212 216 220 224 226 231 234 237 249 260 268 271 272 270
210 206 202 200 199 203 207 209 212 217 223 231 237 239 248 255 258 268 275 273 268 268
220 211 206 207 210 213 216 219 224 229 234 243 251 251 254 247 251 264 273 274 270 271
222 223 223 223 221 223 228 234 235 236 235 243 252 252 258 259 258 261 266 269 270 277
213 215 215 210 208 210 208 197 193 208 224 242 265 285 279 269 258 261 272 280 287 293